[[{"header":{"parameterUnit":"m.s-1","parameterCategory":1,"la1":30.2991,"la2":30.254,"lo1":-89.0895,"lo2":-89.0444,"dy":0.0017,"dx":0.0017,"nx":28,"ny":28,"refTime":"2024-04-09T09:00:00:Z","depth":0,"parameterNumber":2,"parameterNumberName":"U-component_of_WINDS"},"data":[0,0,0,0,0,0,0,0,0,0,0,0,0,0,0,0,0,0,0,0,0,0,0,0,0,0,0,0,0,0,0,0,0,0,0,0,0,0,0,0,0,0,0,0,0,0,0,0,0,0,0,0,0,0,0,0,0,0,-6.1012,-6.1014,0,-6.1128,-6.1129,-6.1131,-6.1115,-6.1113,-6.1111,-6.1109,-6.1226,-6.1231,-6.1236,0,0,0,0,0,0,0,0,0,0,0,0,0,-6.0777,-6.0781,-6.1012,-6.1014,-6.1015,-6.1128,-6.113,-6.1131,-6.1115,-6.1113,-6.1111,-6.1109,-6.1225,-6.123,-6.1236,0,0,0,0,0,0,0,0,0,0,0,0,0,-6.0885,-6.0783,-6.1012,-6.1021,-6.1023,-6.1128,-6.113,-6.1132,-6.1116,-6.1113,-6.111,-6.1107,-6.1223,-6.123,-6.1237,-6.134,0,0,-6.126,-6.1263,0,0,0,0,0,0,0,0,-6.0878,-6.0893,-6.1018,-6.102,-6.1023,-6.1104,-6.1089,-6.1201,-6.1117,-6.108,-6.1109,-6.1106,-6.1188,-6.1198,-6.1226,-6.1345,-6.135,-6.126,-6.1265,-6.1268,-6.127,0,0,0,0,0,0,0,-6.0871,-6.0888,-6.1058,-6.102,-6.1023,-6.1019,-6.1031,-6.1111,-6.1149,-6.1083,-6.1083,-6.1097,-6.1189,-6.1219,-6.1229,-6.1352,-6.126,-6.1267,-6.1271,-6.1274,-6.1562,-6.1565,0,0,0,0,0,0,-6.0861,-6.0882,-6.1054,-6.1061,-6.0942,-6.1026,-6.1039,-6.1081,-6.1148,-6.1155,-6.1099,-6.1095,-6.1208,-6.122,-6.1233,-6.1356,-6.1268,-6.1275,-6.1279,-6.1559,-6.1563,-6.1566,0,0,0,0,0,0,-6.0856,-6.0877,-6.105,-6.0972,-6.0993,-6.1033,-6.108,-6.1085,-6.1115,-6.116,-6.1166,-6.1123,-6.1206,-6.1222,-6.1313,-6.136,-6.1278,-6.1285,-6.1555,-6.156,-6.1565,-6.1605,0,0,0,0,0,0,-6.085,-6.0875,-6.0914,-6.0973,-6.0998,-6.1128,-6.1083,-6.1089,-6.1128,-6.1124,-6.1184,-6.1191,-6.1205,-6.1303,-6.1321,-6.1369,-6.129,-6.1551,-6.1557,-6.1563,-6.1599,-6.161,-6.162,0,0,0,0,0,-6.0841,-6.092,-6.0916,-6.0937,-6.1047,-6.1131,-6.1145,-6.116,-6.1132,-6.1171,-6.12,-6.1189,-6.1353,-6.1312,-6.1332,-6.1383,-6.1548,-6.1556,-6.1563,-6.1595,-6.1608,-6.162,0,0,0,0,0,0,-6.0865,-6.0928,-6.0924,-6.1025,-6.1073,-6.1128,-6.1178,-6.1174,-6.1231,-6.1225,-6.1242,-6.1255,-6.1347,-6.1375,-6.1328,-6.1487,-6.1447,-6.1458,-6.1464,-6.1477,-6.1487,-6.1477,-6.1296,0,0,0,0,0,-6.0882,-6.0946,-6.0997,-6.1081,-6.1106,-6.1138,-6.1175,-6.1183,-6.1233,-6.1253,-6.1289,-6.1338,-6.1401,-6.1441,-6.1501,-6.1605,-6.1617,-6.165,-6.1661,-6.1669,-6.1677,-6.1734,-6.1749,-6.159,-6.159,-6.159,0,0,-6.0918,-6.096,-6.0999,-6.1087,-6.1125,-6.1189,-6.1155,-6.1225,-6.1272,-6.1264,-6.1351,-6.138,-6.1436,-6.1534,-6.1579,-6.156,-6.1725,-6.1678,-6.1684,-6.1688,-6.1743,-6.1758,-6.1771,-6.1595,-6.1595,-6.1594,0,0,-6.1014,-6.1054,-6.1127,-6.1167,-6.1226,-6.1248,-6.1266,-6.1323,-6.1342,-6.1431,-6.1426,-6.1484,-6.1591,-6.1631,-6.1665,-6.1782,-6.1773,-6.1801,-6.1853,-6.1908,-6.192,-6.1931,-6.1971,-6.1985,-6.1811,-6.1811,-6.1811,0,-6.105,-6.1147,-6.1165,-6.1236,-6.1275,-6.1272,-6.1347,-6.1385,-6.146,-6.1487,-6.1465,-6.1601,-6.1639,-6.1746,-6.1774,-6.1803,-6.1823,-6.1792,-6.1917,-6.1929,-6.1939,-6.1977,-6.1992,-6.1814,-6.1813,-6.1813,-6.1813,0,-6.1188,-6.1256,-6.1308,-6.1382,-6.1427,-6.15,-6.1529,-6.1573,-6.1578,-6.1602,-6.1694,-6.174,-6.1809,-6.1836,-6.1841,-6.1944,-6.193,-6.1914,-6.1873,-6.1957,-6.1992,-6.2007,-6.1818,-6.1817,-6.1816,-6.1815,0,0,-6.1297,-6.1383,-6.1402,-6.1435,-6.1502,-6.1555,-6.1628,-6.1697,-6.1733,-6.1787,-6.1848,-6.1941,-6.1926,-6.1966,-6.1976,-6.2025,-6.2113,-6.2002,-6.2004,-6.2019,-6.2227,-6.2237,-6.2253,-6.2109,-6.2112,-6.2115,-6.2222,0,-6.1398,-6.1527,-6.1547,-6.166,-6.1723,-6.1723,-6.1787,-6.1835,-6.1861,-6.1918,-6.1947,-6.2011,-6.1988,-6.2012,-6.2061,-6.2091,-6.2154,-6.2085,-6.2164,-6.2167,-6.2146,-6.2272,-6.2282,-6.2381,-6.2236,-6.2238,-6.224,0,-6.1532,-6.159,-6.1709,-6.1769,-6.1796,-6.1852,-6.1917,-6.1973,-6.2028,-6.2043,-6.2089,-6.2095,-6.2171,-6.2131,-6.2235,-6.2188,-6.2223,-6.2244,-6.2248,-6.2252,-6.2205,-6.2277,-6.2413,-6.2426,-6.2263,-6.2261,-6.2259,0,-6.1597,-6.1705,-6.1791,-6.182,-6.1892,-6.1932,-6.1963,-6.2016,-6.2057,-6.2115,-6.2141,-6.2207,-6.2242,-6.2294,-6.2317,-6.2286,-6.242,-6.2382,-6.2434,-6.2433,-6.2458,-6.2455,-6.2597,-6.2487,-6.2487,-6.2486,-6.2486,0,-6.1705,-6.1777,-6.1821,-6.1872,-6.1954,-6.1978,-6.2058,-6.2089,-6.2136,-6.2194,-6.2201,-6.2255,-6.2285,-6.2344,-6.2364,-6.2446,-6.2463,-6.2477,-6.248,-6.2474,-6.2472,-6.2494,-6.2486,-6.249,-6.2489,-6.2489,-6.2488,0,-6.1789,-6.1821,-6.1914,-6.1976,-6.1993,-6.205,-6.2103,-6.2154,-6.2181,-6.2255,-6.2274,-6.2316,-6.2386,-6.2416,-6.2503,-6.2516,-6.261,-6.2611,-6.2591,-6.2591,-6.264,-6.2634,-6.2798,-6.282,-6.2698,-6.2699,-6.27,0,-6.1853,-6.1909,-6.1978,-6.2018,-6.2051,-6.2115,-6.2157,-6.2184,-6.2227,-6.2296,-6.2338,-6.2409,-6.2466,-6.2579,-6.2617,-6.2684,-6.2683,-6.2737,-6.2693,-6.2685,-6.2681,-6.2676,-6.2681,-6.2743,-6.2744,-6.2745,-6.2746,0,-6.1964,-6.1978,-6.2038,-6.2106,-6.2156,-6.221,-6.2262,-6.2294,-6.233,-6.2378,-6.2451,-6.2495,-6.2585,-6.2654,-6.2724,-6.2757,-6.2757,-6.2761,-6.2775,-6.2767,-6.2752,-6.2758,-6.2609,-6.2755,-6.2754,-6.2754,-6.2753,-6.2753,-6.2039,-6.2088,-6.2144,-6.2212,-6.2255,-6.2305,-6.2355,-6.239,-6.2451,-6.2525,-6.2538,-6.2615,-6.2671,-6.2764,-6.2801,-6.2861,-6.2848,-6.287,-6.2875,-6.2879,-6.2881,-6.2747,-6.2874,-6.2874,-6.2874,-6.2874,-6.2874,0,-6.2147,-6.2184,-6.2247,-6.232,-6.2374,-6.2373,-6.2431,-6.2476,-6.2543,-6.2596,-6.2653,-6.2736,-6.2805,-6.285,-6.292,-6.2959,-6.2961,-6.2976,-6.2972,-6.2979,-6.289,-6.2868,-6.2974,-6.2974,-6.2974,-6.2974,-6.2974,-6.2974,-6.221,-6.2293,-6.2314,-6.242,-6.2457,-6.2532,-6.2566,-6.2612,-6.2653,-6.2746,-6.2804,-6.2834,-6.2883,-6.2957,-6.302,-6.3032,-6.3056,-6.3071,-6.3082,-6.2996,-6.2985,-6.2975,-6.2955,-6.3077,-6.3077,-6.3166,-6.3166,-6.3167]},{"header":{"parameterUnit":"m.s-1","parameterCategory":1,"la1":30.2991,"la2":30.254,"lo1":-89.0895,"lo2":-89.0444,"dy":0.0017,"dx":0.0017,"nx":28,"ny":28,"refTime":"2024-04-09T09:00:00:Z","depth":0,"parameterNumber":3,"parameterNumberName":"V-component_of_WINDS"},"data":[0,0,0,0,0,0,0,0,0,0,0,0,0,0,0,0,0,0,0,0,0,0,0,0,0,0,0,0,0,0,0,0,0,0,0,0,0,0,0,0,0,0,0,0,0,0,0,0,0,0,0,0,0,0,0,0,0,0,3.5866,3.5866,0,3.5863,3.5863,3.5863,3.5845,3.5844,3.5844,3.5844,3.5836,3.5836,3.5837,0,0,0,0,0,0,0,0,0,0,0,0,0,3.5853,3.5854,3.5866,3.5866,3.5866,3.5863,3.5863,3.5863,3.5845,3.5844,3.5844,3.5843,3.5836,3.5836,3.5837,0,0,0,0,0,0,0,0,0,0,0,0,0,3.5855,3.5854,3.5866,3.5857,3.5856,3.5863,3.5863,3.5863,3.5845,3.5844,3.5844,3.5843,3.5836,3.5836,3.5837,3.5851,0,0,3.5838,3.5838,0,0,0,0,0,0,0,0,3.5855,3.5856,3.5858,3.5857,3.5856,3.5854,3.5856,3.5859,3.5845,3.5849,3.5844,3.5843,3.5842,3.5842,3.5843,3.5851,3.5851,3.5838,3.5838,3.5838,3.5838,0,0,0,0,0,0,0,3.5855,3.5856,3.5865,3.5858,3.5857,3.5852,3.5851,3.5856,3.5849,3.5849,3.5847,3.5847,3.5842,3.5843,3.5842,3.5851,3.5838,3.5838,3.5838,3.5838,3.5873,3.5874,0,0,0,0,0,0,3.5857,3.5856,3.5865,3.5864,3.5854,3.5853,3.5852,3.5855,3.5849,3.5848,3.5848,3.5847,3.5842,3.5842,3.5842,3.586,3.5838,3.5838,3.5838,3.5872,3.5873,3.5874,0,0,0,0,0,0,3.5857,3.5858,3.5865,3.586,3.586,3.5853,3.5857,3.5855,3.5856,3.5849,3.5847,3.585,3.5842,3.5842,3.585,3.586,3.5838,3.5839,3.5871,3.5872,3.5873,3.5896,0,0,0,0,0,0,3.5856,3.5858,3.5864,3.586,3.5861,3.5873,3.5858,3.5856,3.5857,3.5856,3.585,3.5849,3.5841,3.585,3.585,3.586,3.5839,3.587,3.5872,3.5873,3.5894,3.5898,3.5901,0,0,0,0,0,3.5856,3.5868,3.5864,3.5865,3.5868,3.5874,3.5874,3.5866,3.5858,3.5864,3.5859,3.5849,3.5859,3.5851,3.5851,3.5861,3.587,3.5871,3.5873,3.5893,3.5897,3.5901,0,0,0,0,0,0,3.5871,3.5868,3.5863,3.5875,3.5875,3.5871,3.5878,3.5871,3.5872,3.587,3.5859,3.5858,3.5869,3.5865,3.5856,3.5876,3.5863,3.5864,3.5878,3.5881,3.5885,3.5885,3.5839,0,0,0,0,0,3.5876,3.5882,3.5879,3.589,3.589,3.5884,3.5886,3.5881,3.588,3.588,3.5875,3.5874,3.5877,3.5879,3.5881,3.5894,3.5893,3.5901,3.5904,3.5907,3.5909,3.5917,3.5921,3.5879,3.5879,3.5879,0,0,3.5886,3.5885,3.5889,3.5893,3.5892,3.5899,3.5884,3.5891,3.5895,3.588,3.5888,3.5886,3.5883,3.5895,3.5899,3.5893,3.592,3.5909,3.5911,3.5911,3.5919,3.5923,3.5927,3.588,3.588,3.588,0,0,3.5907,3.5907,3.5917,3.5918,3.5918,3.5915,3.5917,3.5915,3.5913,3.5922,3.5912,3.5916,3.5921,3.5921,3.5921,3.5946,3.5936,3.5946,3.5963,3.5971,3.5974,3.5977,3.5987,3.599,3.5948,3.5948,3.5948,0,3.5918,3.5929,3.5923,3.5931,3.5933,3.5923,3.5933,3.5933,3.5934,3.5935,3.5928,3.5936,3.5933,3.5946,3.5952,3.5952,3.5955,3.5947,3.5975,3.5977,3.598,3.5989,3.5993,3.5949,3.5949,3.5949,3.5949,0,3.5944,3.5951,3.5959,3.5963,3.5966,3.5975,3.597,3.5974,3.5969,3.5966,3.5976,3.5973,3.5976,3.5978,3.5972,3.599,3.5986,3.5977,3.5963,3.5985,3.5994,3.5997,3.5951,3.5951,3.595,3.595,0,0,3.5972,3.5975,3.5978,3.5981,3.5982,3.5987,3.5996,3.6001,3.6005,3.6006,3.6013,3.6019,3.6012,3.6013,3.6006,3.6014,3.6035,3.6004,3.6004,3.6011,3.6056,3.6064,3.6068,3.603,3.603,3.6031,3.6057,0,3.5994,3.6011,3.6007,3.6024,3.6031,3.6022,3.6031,3.6032,3.603,3.6035,3.6033,3.6038,3.6027,3.6028,3.6034,3.6031,3.6044,3.6029,3.6036,3.6037,3.6038,3.6072,3.6079,3.6104,3.606,3.6061,3.6061,0,3.602,3.6026,3.6044,3.6047,3.605,3.6057,3.6062,3.6068,3.6069,3.6067,3.607,3.6063,3.6072,3.6059,3.6072,3.6062,3.6064,3.6064,3.6064,3.6065,3.605,3.6074,3.6111,3.6115,3.6066,3.6065,3.6065,0,3.6041,3.6053,3.6066,3.6068,3.6071,3.6077,3.6078,3.6079,3.6083,3.6087,3.6089,3.6094,3.6096,3.6099,3.6094,3.6085,3.6108,3.6094,3.6106,3.6107,3.6111,3.6111,3.615,3.6113,3.6112,3.6112,3.6112,0,3.6066,3.6077,3.6076,3.6084,3.6097,3.6092,3.6105,3.6105,3.6107,3.6115,3.6106,3.6113,3.6106,3.6112,3.6108,3.612,3.612,3.6119,3.6118,3.612,3.6121,3.6122,3.612,3.6113,3.6113,3.6113,3.6113,0,3.6091,3.609,3.6104,3.6107,3.6108,3.6117,3.6119,3.6127,3.6125,3.6135,3.6137,3.6134,3.6142,3.6137,3.6144,3.6141,3.6157,3.6153,3.6157,3.6156,3.6169,3.6168,3.6211,3.6217,3.6175,3.6175,3.6175,0,3.6106,3.6116,3.6121,3.6126,3.6129,3.6138,3.6142,3.6139,3.6144,3.6148,3.6155,3.6162,3.6168,3.618,3.6178,3.6183,3.618,3.6195,3.618,3.6183,3.6181,3.6181,3.6182,3.6197,3.6198,3.6198,3.6198,0,3.6135,3.6135,3.6143,3.6152,3.6158,3.6164,3.6169,3.6174,3.6171,3.6177,3.6186,3.619,3.6199,3.6206,3.6212,3.6212,3.6205,3.6203,3.6207,3.6209,3.6211,3.6211,3.6165,3.6202,3.6202,3.6201,3.6201,3.6201,3.6156,3.6165,3.6171,3.6181,3.6185,3.6191,3.6199,3.62,3.6208,3.6216,3.6213,3.6223,3.6226,3.6233,3.6235,3.6242,3.6236,3.6241,3.6242,3.6243,3.6246,3.6211,3.6243,3.6243,3.6243,3.6243,3.6243,0,3.6186,3.619,3.6199,3.6208,3.6216,3.6211,3.6217,3.6224,3.6234,3.6238,3.6245,3.6256,3.6264,3.6263,3.6271,3.6277,3.6274,3.6279,3.6279,3.6279,3.625,3.6247,3.6281,3.6281,3.6281,3.6281,3.6281,3.6281,3.6202,3.6217,3.6218,3.6236,3.624,3.6251,3.6256,3.6261,3.6265,3.6278,3.6286,3.6286,3.6289,3.6297,3.6304,3.6304,3.6307,3.6313,3.6312,3.6285,3.6281,3.6277,3.6274,3.6314,3.6314,3.634,3.634,3.6341]}]]